Triuchirapalli, India

3:23 AM IST on May 27, 2017 (GMT +0530)
Tiruchirappalli

Weather History for VOTR - August, 2014

Change the Weather History Date:

Monday, August 11, 2014

  Actual Average Record
Temperature  
Mean Temperature 90 °F -  
Max Temperature 100 °F 92 °F 100 °F (2014)
Min Temperature 79 °F 79 °F 72 °F (2013)
Cooling Degree Days 24    
Growing Degree Days 40 (Base 50)    
Moisture  
Dew Point 71 °F    
Average Humidity 59    
Maximum Humidity 74    
Minimum Humidity 29    
Precipitation  
Precipitation 0.04 in - - ()
Sea Level Pressure  
Sea Level Pressure 29.75 in    
Wind  
Wind Speed 7 mph ()    
Max Wind Speed 15 mph    
Max Gust Speed 26 mph    
Visibility 3.4 miles    
Events Rain    
Averages and records for this station are not official NWS values.
T = Trace of Precipitation, MM = Missing Value Source: Averaged Metar Reports

Daily Weather History Graph

Daily Weather History Graph

Search for Another Location

Airport or City:

Trip Planner

Search our weather history database for the weather conditions in past years. The results will help you decide how hot, cold, wet, or windy it might be!

Date:

Astronomy

Aug. 11, 2014 Rise Set
Actual Time 6:04 AM IST 6:35 PM IST
Civil Twilight 5:42 AM IST 6:57 PM IST
Nautical Twilight 5:17 AM IST 7:23 PM IST
Astronomical Twilight 4:51 AM IST 7:49 PM IST
Moon 7:05 PM IST (8/11) 6:21 AM IST (8/11)
Length of Visible Light 13h 14m
Length of Day
12h 30m
Full, 100% of the Moon is Illuminated
Aug 11
Full
Aug 17
Last Quarter
Aug 25
New
Sep 2
First Quarter
Sep 9
Full

Hourly Weather History & Observations

Time (IST) Temp. Heat Index Dew Point Humidity Pressure Visibility Wind Dir Wind Speed Gust Speed Precip Events Conditions
12:10 AM 84.2 °F 90.9 °F 73.4 °F 70% 29.80 in 3.7 mi Variable 2.3 mph - N/A   Mostly Cloudy
12:40 AM 84.2 °F 90.9 °F 73.4 °F 70% 29.80 in 3.7 mi Calm Calm - N/A   Mostly Cloudy
1:10 AM 82.4 °F 88.2 °F 73.4 °F 74% 29.80 in 3.7 mi Variable 2.3 mph - N/A   Light Drizzle
1:40 AM 82.4 °F 88.2 °F 73.4 °F 74% 29.77 in 3.7 mi Variable 2.3 mph - N/A   Light Drizzle
2:10 AM 82.4 °F 88.2 °F 73.4 °F 74% 29.77 in 3.7 mi WNW 3.5 mph - N/A   Mostly Cloudy
2:30 AM 83 °F - 70 °F 56% 29.77 in 2 mi WNW 5.8 mph - -   Haze
2:40 AM 82.4 °F 87.2 °F 71.6 °F 70% 29.77 in 3.7 mi WNW 6.9 mph - N/A   Mostly Cloudy
3:10 AM 82.4 °F 87.2 °F 71.6 °F 70% 29.77 in 3.7 mi West 4.6 mph - N/A   Mostly Cloudy
3:40 AM 82.4 °F 87.2 °F 71.6 °F 70% 29.74 in 3.7 mi West 5.8 mph - N/A   Mostly Cloudy
4:10 AM 82.4 °F 87.2 °F 71.6 °F 70% 29.74 in 3.7 mi West 6.9 mph - N/A   Mostly Cloudy
4:40 AM 82.4 °F 87.2 °F 71.6 °F 70% 29.74 in 3.7 mi WNW 6.9 mph - N/A   Mostly Cloudy
5:10 AM 82.4 °F 87.2 °F 71.6 °F 70% 29.74 in 3.7 mi WNW 8.1 mph - N/A   Mostly Cloudy
5:30 AM 82 °F - 70 °F 59% 29.75 in 2 mi West 9.2 mph - -   Haze
5:40 AM 82.4 °F 87.2 °F 71.6 °F 70% 29.74 in 3.7 mi WNW 9.2 mph - N/A   Mostly Cloudy
6:10 AM 82.4 °F 87.2 °F 71.6 °F 70% 29.77 in 3.7 mi WNW 6.9 mph - N/A   Mostly Cloudy
6:40 AM 82.4 °F 87.2 °F 71.6 °F 70% 29.77 in 3.7 mi WNW 9.2 mph - N/A   Mostly Cloudy
7:10 AM 82.4 °F 87.2 °F 71.6 °F 70% 29.77 in 3.7 mi WNW 9.2 mph - N/A   Mostly Cloudy
7:40 AM 82.4 °F 87.2 °F 71.6 °F 70% 29.80 in 3.7 mi WNW 10.4 mph - N/A   Mostly Cloudy
8:10 AM 84.2 °F 89.6 °F 71.6 °F 66% 29.80 in 3.7 mi West 10.4 mph - N/A   Mostly Cloudy
8:30 AM 85 °F - 72 °F 56% 29.79 in 2 mi WNW 11.5 mph - -   Haze
8:40 AM 84.2 °F 89.6 °F 71.6 °F 66% 29.80 in 3.7 mi WNW 11.5 mph - N/A   Scattered Clouds
9:40 AM 87.8 °F 93.8 °F 71.6 °F 58% 29.80 in 3.7 mi WNW 11.5 mph - N/A   Scattered Clouds
10:10 AM 87.8 °F 93.8 °F 71.6 °F 58% 29.80 in 3.7 mi WNW 11.5 mph - N/A   Scattered Clouds
10:40 AM 89.6 °F 96.2 °F 71.6 °F 55% 29.80 in 3.7 mi WNW 11.5 mph - N/A   Scattered Clouds
11:10 AM 91.4 °F 96.8 °F 69.8 °F 49% 29.80 in 3.7 mi West 11.5 mph - N/A   Scattered Clouds
11:30 AM 95 °F - 68 °F 32% 29.76 in 2 mi West 11.5 mph - -   Haze
11:40 AM 93.2 °F 98.8 °F 69.8 °F 46% 29.77 in 3.7 mi West 13.8 mph - N/A   Scattered Clouds
12:10 PM 95.0 °F 99.5 °F 68.0 °F 41% 29.74 in 3.7 mi West 13.8 mph - N/A   Scattered Clouds
12:40 PM 96.8 °F 101.8 °F 68.0 °F 39% 29.74 in 3.7 mi WSW 13.8 mph - N/A   Scattered Clouds
1:10 PM 96.8 °F 101.8 °F 68.0 °F 39% 29.71 in 3.7 mi West 9.2 mph - N/A   Scattered Clouds
1:40 PM 98.6 °F 104.1 °F 68.0 °F 37% 29.71 in 3.7 mi West 13.8 mph - N/A   Scattered Clouds
2:10 PM 98.6 °F 104.1 °F 68.0 °F 37% 29.71 in 3.7 mi SW 9.2 mph - N/A   Scattered Clouds
2:30 PM 98 °F - 69 °F 29% 29.68 in 2 mi SW 9.2 mph - -   Haze
2:40 PM 98.6 °F 104.1 °F 68.0 °F 37% 29.68 in 3.7 mi SSW 6.9 mph - N/A   Scattered Clouds
3:10 PM 96.8 °F 103.1 °F 69.8 °F 41% 29.68 in 3.7 mi SSW 6.9 mph - N/A   Scattered Clouds
3:40 PM 95.0 °F 101.3 °F 69.8 °F 44% 29.68 in 3.7 mi WSW 10.4 mph - N/A   Mostly Cloudy
5:10 PM 89.6 °F 98.2 °F 73.4 °F 59% 29.68 in 3.7 mi WSW 13.8 mph - N/A   Mostly Cloudy
5:30 PM 89 °F - 71 °F 47% 29.68 in 2 mi West 13.8 mph - -   Haze
5:40 PM 89.6 °F 98.2 °F 73.4 °F 59% 29.68 in 3.7 mi West 15.0 mph 26.5 mph N/A   Mostly Cloudy
6:10 PM 87.8 °F 92.6 °F 69.8 °F 55% 29.71 in 3.7 mi West 12.7 mph 24.2 mph N/A   Mostly Cloudy
6:40 PM 86.0 °F 91.8 °F 71.6 °F 62% 29.71 in 3.7 mi West 11.5 mph 23.0 mph N/A   Mostly Cloudy
7:10 PM 86.0 °F 90.4 °F 69.8 °F 58% 29.74 in 3.7 mi WSW 10.4 mph - N/A   Mostly Cloudy
7:40 PM 86.0 °F 90.4 °F 69.8 °F 58% 29.74 in 3.7 mi SSW 5.8 mph - N/A   Light Drizzle
8:10 PM 86.0 °F 90.4 °F 69.8 °F 58% 29.77 in 3.7 mi Variable 4.6 mph - N/A   Light Drizzle
8:30 PM 85 °F - 72 °F 56% 29.77 in 2 mi SW 4.6 mph - - Rain Light Drizzle
8:40 PM 84.2 °F 89.6 °F 71.6 °F 66% 29.77 in 3.7 mi WSW 4.6 mph - N/A   Light Drizzle
9:40 PM 84.2 °F 89.6 °F 71.6 °F 66% 29.80 in 3.1 mi WSW 6.9 mph - N/A   Drizzle
10:10 PM 84.2 °F 89.6 °F 71.6 °F 66% 29.80 in 3.7 mi WSW 6.9 mph - N/A   Light Drizzle
10:40 PM 84.2 °F 89.6 °F 71.6 °F 66% 29.77 in 3.7 mi West 6.9 mph - N/A   Overcast
11:10 PM 84.2 °F 89.6 °F 71.6 °F 66% 29.77 in 3.7 mi West 6.9 mph - N/A   Overcast
11:30 PM 82 °F - 70 °F 59% 29.78 in 2 mi WNW 11.5 mph - -   Haze
11:40 PM 82.4 °F 87.2 °F 71.6 °F 70% 29.77 in 3.7 mi WNW 11.5 mph - N/A   Mostly Cloudy